Dades meteomassalio
Diari Summary for Juliol 21, 2017 Units:  English    Metric   Both
« Previous Day
Next Day »
Diari Semanal Mensual Anual Personalitzat
  Maxima: Minima: Mijana:
Temperatura: TemperatureC °F 17.3 °F 22.5 °F
Rosada: DewpointC °F 13.1 °F 16.6 °F
Humitat: Humidity % 54 % 70 %
Velocitat del vent: WindSpeedKMH mph 0.0 mph 6.8 mph
Racha vent: WindSpeedGustKMH mph - -
Vent:- - SSE
Pressio: PressurehPa in 1008.7 in -
Pluja: 8.4 in    
Historical Graphs
 
 
Tabular Data for Juliol 21, 2017
Time Temperature Dew Point Pressure Wind Wind Speed Wind Gust Humidity Rainfall Rate (Hourly) solar Conditions
TemperatureC °F DewpointC °F PressurehPa in Calm     Humidity % HourlyPrecipMM in SolarRadiationWatts/m^2 W/m2 Conditions
00:02 24.9 °F 15.3 °F 1011.1 in NW 16.7 mph 16.7 mph 55 % 0.0 in 0.0 W/m2 CLR
00:07 24.7 °F 14.7 °F 1011.1 in NNW 16.1 mph 16.1 mph 54 % 0.0 in 0.0 W/m2 CLR
00:12 24.4 °F 14.8 °F 1011.1 in NNW 14.8 mph 14.8 mph 55 % 0.0 in 0.0 W/m2 CLR
00:17 24.3 °F 14.7 °F 1011.1 in NNW 18.5 mph 18.5 mph 55 % 0.0 in 0.0 W/m2 CLR
00:22 24.1 °F 14.5 °F 1011.1 in NW 8.0 mph 8.0 mph 55 % 0.0 in 0.0 W/m2 CLR
00:27 24.0 °F 14.4 °F 1011.1 in NW 14.8 mph 14.8 mph 55 % 0.0 in 0.0 W/m2 CLR
00:32 23.8 °F 14.5 °F 1011.4 in WNW 9.3 mph 9.3 mph 56 % 0.0 in 0.0 W/m2 CLR
00:37 23.7 °F 14.4 °F 1011.4 in WNW 14.8 mph 14.8 mph 56 % 0.0 in 0.0 W/m2 CLR
00:42 23.5 °F 13.9 °F 1011.4 in NNW 11.3 mph 11.3 mph 55 % 0.0 in 0.0 W/m2 CLR
00:47 23.4 °F 14.1 °F 1011.4 in NW 3.7 mph 3.7 mph 56 % 0.0 in 0.0 W/m2 CLR
00:52 23.2 °F 13.9 °F 1011.7 in NW 11.1 mph 11.1 mph 56 % 0.0 in 0.0 W/m2 CLR
00:57 23.1 °F 14.1 °F 1011.4 in NW 7.4 mph 7.4 mph 57 % 0.0 in 0.0 W/m2 CLR
01:02 23.1 °F 14.1 °F 1011.7 in Calm     57 % 0.0 in 0.0 W/m2 CLR
01:07 22.9 °F 13.9 °F 1011.7 in Calm     57 % 0.0 in 0.0 W/m2 CLR
01:12 22.9 °F 13.9 °F 1011.7 in Calm     57 % 0.0 in 0.0 W/m2 CLR
01:17 22.8 °F 14.1 °F 1011.7 in Calm     58 % 0.0 in 0.0 W/m2 CLR
01:22 22.7 °F 14.1 °F 1011.7 in Calm     58 % 0.0 in 0.0 W/m2 CLR
01:27 22.7 °F 14.0 °F 1011.7 in Calm     58 % 0.0 in 0.0 W/m2 CLR
01:32 22.6 °F 13.9 °F 1011.7 in Calm     58 % 0.0 in 0.0 W/m2 CLR
01:37 22.6 °F 13.9 °F 1011.7 in Calm     58 % 0.0 in 0.0 W/m2 CLR
01:42 22.6 °F 13.9 °F 1011.7 in Calm     58 % 0.0 in 0.0 W/m2 CLR
01:47 22.5 °F 13.8 °F 1011.7 in Calm     58 % 0.0 in 0.0 W/m2 CLR
01:52 22.4 °F 13.8 °F 1011.7 in Calm     58 % 0.0 in 0.0 W/m2 CLR
01:57 22.4 °F 13.7 °F 1011.7 in Calm     58 % 0.0 in 0.0 W/m2 CLR
02:02 22.3 °F 13.7 °F 1011.7 in Calm   1.0 mph 58 % 0.0 in 0.0 W/m2 CLR
02:07 22.3 °F 13.6 °F 1011.7 in Calm     58 % 0.0 in 0.0 W/m2 CLR
02:12 22.2 °F 13.6 °F 1011.7 in NW 8.0 mph 8.0 mph 58 % 0.0 in 0.0 W/m2 CLR
02:17 22.2 °F 13.8 °F 1011.7 in NNW 13.0 mph 13.0 mph 59 % 0.0 in 0.0 W/m2 CLR
02:22 22.1 °F 13.7 °F 1011.4 in NW 11.3 mph 11.3 mph 59 % 0.0 in 0.0 W/m2 CLR
02:27 22.1 °F 13.7 °F 1011.4 in NW 5.6 mph 5.6 mph 59 % 0.0 in 0.0 W/m2 CLR
02:32 22.1 °F 13.7 °F 1011.4 in NNW 6.4 mph 6.4 mph 59 % 0.0 in 0.0 W/m2 CLR
02:37 22.1 °F 13.7 °F 1011.4 in NW 5.6 mph 5.6 mph 59 % 0.0 in 0.0 W/m2 CLR
02:42 22.0 °F 13.6 °F 1011.4 in NW 3.7 mph   59 % 0.0 in 0.0 W/m2 CLR
02:47 22.0 °F 13.6 °F 1011.4 in Calm   0.3 mph 59 % 0.0 in 0.0 W/m2 CLR
02:53 21.9 °F 13.6 °F 1011.7 in NW 7.4 mph 7.4 mph 59 % 0.0 in 0.0 W/m2 CLR
02:57 21.9 °F 13.5 °F 1011.4 in WNW 5.6 mph 5.6 mph 59 % 0.0 in 0.0 W/m2 CLR
03:02 21.8 °F 13.4 °F 1011.4 in Calm     59 % 0.0 in 0.0 W/m2 CLR
03:08 21.7 °F 13.3 °F 1011.4 in WNW 9.3 mph 9.3 mph 59 % 0.0 in 0.0 W/m2 CLR
03:13 21.7 °F 13.3 °F 1011.4 in NW 5.6 mph 5.6 mph 59 % 0.0 in 0.0 W/m2 CLR
03:18 21.6 °F 13.4 °F 1011.4 in WNW 3.7 mph 3.7 mph 60 % 0.0 in 0.0 W/m2 CLR
03:23 21.5 °F 13.4 °F 1011.4 in Calm     60 % 0.0 in 0.0 W/m2 CLR
03:28 21.4 °F 13.3 °F 1011.4 in Calm     60 % 0.0 in 0.0 W/m2 CLR
03:33 21.4 °F 13.6 °F 1011.4 in Calm     61 % 0.0 in 0.0 W/m2 CLR
03:38 21.3 °F 13.4 °F 1011.1 in Calm     61 % 0.0 in 0.0 W/m2 CLR
03:43 21.2 °F 13.4 °F 1011.1 in Calm     61 % 0.0 in 0.0 W/m2 CLR
03:48 21.2 °F 13.3 °F 1011.4 in Calm     61 % 0.0 in 0.0 W/m2 CLR
03:53 21.1 °F 13.2 °F 1011.4 in WNW 4.8 mph 4.8 mph 61 % 0.0 in 0.0 W/m2 CLR
03:58 21.0 °F 13.4 °F 1011.4 in Calm   0.2 mph 62 % 0.0 in 0.0 W/m2 CLR
04:03 20.9 °F 13.4 °F 1011.4 in Calm     62 % 0.0 in 0.0 W/m2 CLR
04:08 20.9 °F 13.3 °F 1011.4 in Calm     62 % 0.0 in 0.0 W/m2 CLR
04:13 20.9 °F 13.3 °F 1011.7 in Calm     62 % 0.0 in 0.0 W/m2 CLR
04:18 20.9 °F 13.3 °F 1011.4 in Calm     62 % 0.0 in 0.0 W/m2 CLR
04:23 20.8 °F 13.3 °F 1011.4 in Calm     62 % 0.0 in 0.0 W/m2 CLR
04:28 20.7 °F 13.2 °F 1011.1 in Calm     62 % 0.0 in 0.0 W/m2 CLR
04:33 20.7 °F 13.1 °F 1011.1 in Calm     62 % 0.0 in 0.0 W/m2 CLR
04:38 20.6 °F 13.3 °F 1011.4 in Calm     63 % 0.0 in 0.0 W/m2 CLR
04:43 20.4 °F 13.2 °F 1011.4 in Calm     63 % 0.0 in 0.0 W/m2 CLR
04:48 20.3 °F 13.3 °F 1011.4 in Calm     64 % 0.0 in 0.0 W/m2 CLR
04:53 20.2 °F 13.2 °F 1011.4 in Calm     64 % 0.0 in 0.0 W/m2 CLR
04:58 20.1 °F 13.1 °F 1011.1 in Calm     64 % 0.0 in 0.0 W/m2 CLR
05:03 20.1 °F 13.3 °F 1011.1 in Calm     65 % 0.0 in 0.0 W/m2 CLR
05:08 19.9 °F 13.4 °F 1011.1 in Calm     66 % 0.0 in 0.0 W/m2 CLR
05:13 19.8 °F 13.3 °F 1011.1 in Calm     66 % 0.0 in 0.0 W/m2 CLR
05:18 19.8 °F 13.4 °F 1011.1 in Calm     67 % 0.0 in 0.0 W/m2 CLR
05:23 19.7 °F 13.4 °F 1011.1 in Calm     67 % 0.0 in 0.0 W/m2 CLR
05:28 19.6 °F 13.3 °F 1011.1 in Calm     67 % 0.0 in 0.0 W/m2 CLR
05:33 19.6 °F 13.5 °F 1011.1 in Calm     68 % 0.0 in 0.0 W/m2 CLR
05:38 19.4 °F 13.4 °F 1011.4 in Calm     68 % 0.0 in 0.0 W/m2 CLR
05:43 19.4 °F 13.3 °F 1011.1 in Calm     68 % 0.0 in 0.0 W/m2 CLR
05:48 19.4 °F 13.3 °F 1011.1 in Calm     68 % 0.0 in 0.0 W/m2 CLR
05:53 19.3 °F 13.3 °F 1010.7 in Calm     68 % 0.0 in 0.0 W/m2 CLR
05:58 19.3 °F 13.3 °F 1010.7 in Calm     68 % 0.0 in 0.0 W/m2 CLR
06:03 19.3 °F 13.5 °F 1010.7 in Calm     69 % 0.0 in 0.0 W/m2 CLR
06:08 19.3 °F 13.7 °F 1011.1 in Calm     70 % 0.0 in 0.0 W/m2 CLR
06:13 19.3 °F 13.4 °F 1011.1 in Calm     69 % 0.0 in 0.0 W/m2 CLR
06:18 19.2 °F 13.4 °F 1011.1 in Calm     69 % 0.0 in 0.0 W/m2 CLR
06:23 19.2 °F 13.2 °F 1011.1 in Calm     68 % 0.0 in 0.0 W/m2 CLR
06:28 19.2 °F 13.2 °F 1011.1 in Calm     68 % 0.0 in 0.0 W/m2 CLR
06:33 19.2 °F 13.1 °F 1010.7 in Calm     68 % 0.0 in 0.0 W/m2 CLR
06:38 19.1 °F 13.3 °F 1010.7 in Calm     69 % 0.0 in 0.0 W/m2 OVC
06:43 19.1 °F 13.3 °F 1011.1 in Calm     69 % 0.0 in 0.0 W/m2 OVC
06:48 19.1 °F 13.2 °F 1011.1 in Calm     69 % 0.0 in 0.0 W/m2 OVC
06:53 19.1 °F 13.2 °F 1011.1 in Calm     69 % 0.0 in 11.0 W/m2 BKN
06:58 19.1 °F 13.2 °F 1011.1 in Calm     69 % 0.0 in 12.0 W/m2 BKN
07:03 19.0 °F 13.2 °F 1011.4 in WSW 1.9 mph 1.9 mph 69 % 0.0 in 14.0 W/m2 BKN
07:08 19.1 °F 13.2 °F 1011.7 in Calm     69 % 0.0 in 12.0 W/m2 BKN
07:13 19.1 °F 13.5 °F 1011.4 in Calm     70 % 0.0 in 11.0 W/m2 BKN
07:18 19.1 °F 13.5 °F 1011.4 in Calm     70 % 0.0 in 5.0 W/m2 OVC
07:23 19.1 °F 13.5 °F 1011.4 in Calm     70 % 0.0 in 11.0 W/m2 BKN
07:28 19.1 °F 13.5 °F 1011.1 in Calm     70 % 0.0 in 16.0 W/m2 BKN
07:33 19.1 °F 13.7 °F 1011.1 in Calm     71 % 0.0 in 11.0 W/m2 BKN
07:38 19.1 °F 13.9 °F 1011.1 in Calm     72 % 0.0 in 11.0 W/m2 BKN
07:43 18.9 °F 13.8 °F 1011.7 in West 5.6 mph 5.6 mph 72 % 0.0 in 12.0 W/m2 BKN
07:48 18.8 °F 13.9 °F 1011.7 in Calm     73 % 0.0 in 12.0 W/m2 BKN
07:53 18.8 °F 14.3 °F 1012.1 in Calm     75 % 0.0 in 9.0 W/m2 BKN
07:58 18.7 °F 14.2 °F 1012.1 in Calm     75 % 0.0 in 5.0 W/m2 BKN
08:03 18.7 °F 14.3 °F 1011.7 in Calm     76 % 0.3 in 9.0 W/m2 RA
08:08 18.6 °F 14.4 °F 1011.4 in Calm     77 % 0.8 in 12.0 W/m2 RA
08:13 18.4 °F 14.7 °F 1011.7 in Calm     79 % 0.8 in 18.0 W/m2 BKN
08:18 18.3 °F 15.2 °F 1012.1 in Calm     82 % 0.8 in 25.0 W/m2 BKN
08:23 18.2 °F 15.2 °F 1012.1 in Calm     83 % 0.8 in 26.0 W/m2 BKN
08:28 18.0 °F 15.1 °F 1012.1 in Calm     83 % 0.8 in 42.0 W/m2 BKN
08:33 18.0 °F 15.3 °F 1011.7 in North 5.6 mph 5.6 mph 84 % 1.0 in 60.0 W/m2 RA
08:38 18.0 °F 15.4 °F 1011.7 in Calm     85 % 1.3 in 91.0 W/m2 RA
08:43 17.9 °F 15.4 °F 1011.7 in Calm     85 % 1.3 in 183.0 W/m2 FEW
08:48 18.0 °F 15.4 °F 1011.7 in ENE 1.6 mph 1.6 mph 85 % 1.3 in 67.0 W/m2 CLR
08:53 18.0 °F 15.4 °F 1011.1 in East 8.0 mph 8.0 mph 85 % 1.3 in 30.0 W/m2 FEW
08:58 17.9 °F 15.6 °F 1011.1 in ESE 5.6 mph 5.6 mph 86 % 1.5 in 21.0 W/m2 RA
09:03 17.9 °F 15.5 °F 1011.1 in SE 3.7 mph 3.7 mph 86 % 1.3 in 21.0 W/m2 BKN
09:08 17.8 °F 15.4 °F 1011.1 in SE 6.4 mph 6.4 mph 86 % 0.5 in 18.0 W/m2 BKN
09:09 17.8 °F 15.4 °F 1011.1 in SE 7.4 mph 7.4 mph 86 % 0.8 in 18.0 W/m2 RA
09:14 17.7 °F 15.3 °F 1010.7 in SE 13.0 mph 13.0 mph 86 % 1.5 in 25.0 W/m2 RA
09:19 17.6 °F 15.4 °F 1010.7 in SE 9.3 mph 9.3 mph 87 % 2.0 in 25.0 W/m2 RA
09:24 17.4 °F 15.2 °F 1011.4 in West 5.6 mph 5.6 mph 87 % 2.0 in 14.0 W/m2 BKN
09:29 17.4 °F 15.2 °F 1011.4 in NW 7.4 mph 7.4 mph 87 % 4.1 in 12.0 W/m2 RA
09:34 17.4 °F 15.4 °F 1011.4 in Calm     88 % 7.1 in 18.0 W/m2 RA
09:39 17.3 °F 15.5 °F 1011.4 in North 11.1 mph 11.1 mph 89 % 7.1 in 42.0 W/m2 RA
09:44 17.3 °F 15.5 °F 1011.4 in Calm     89 % 7.1 in 90.0 W/m2 BKN
09:49 17.3 °F 15.7 °F 1011.4 in Calm     90 % 7.1 in 104.0 W/m2 FEW
09:54 17.3 °F 15.7 °F 1011.7 in Calm     90 % 7.1 in 95.0 W/m2 CLR
09:59 17.3 °F 15.5 °F 1011.7 in Calm     89 % 7.1 in 77.0 W/m2 CLR
10:04 17.3 °F 15.5 °F 1011.7 in Calm     89 % 7.1 in 63.0 W/m2 FEW
10:09 17.4 °F 15.6 °F 1011.7 in Calm     89 % 6.9 in 74.0 W/m2 FEW
10:14 17.4 °F 15.6 °F 1011.7 in Calm     89 % 6.1 in 113.0 W/m2 FEW
10:19 17.4 °F 15.6 °F 1011.4 in Calm     89 % 5.6 in 142.0 W/m2 CLR
10:24 17.6 °F 15.7 °F 1011.7 in Calm     89 % 5.6 in 181.0 W/m2 CLR
10:29 17.6 °F 15.6 °F 1011.7 in Calm     88 % 3.6 in 155.0 W/m2 CLR
10:34 17.6 °F 15.6 °F 1011.7 in Calm     88 % 0.3 in 158.0 W/m2 CLR
10:39 17.7 °F 15.7 °F 1011.7 in North 5.6 mph 5.6 mph 88 % 0.0 in 123.0 W/m2 CLR
10:44 17.7 °F 15.7 °F 1011.7 in Calm     88 % 0.0 in 120.0 W/m2 CLR
10:49 17.7 °F 15.7 °F 1011.7 in Calm     88 % 0.0 in 155.0 W/m2 CLR
10:54 17.7 °F 15.7 °F 1011.4 in Calm     88 % 0.0 in 230.0 W/m2 CLR
10:59 17.8 °F 15.8 °F 1011.4 in Calm     88 % 0.0 in 374.0 W/m2 CLR
11:04 18.0 °F 16.0 °F 1011.7 in Calm     88 % 0.0 in 278.0 W/m2 CLR
11:09 18.2 °F 15.6 °F 1011.7 in Calm     85 % 0.0 in 206.0 W/m2 CLR
11:14 18.3 °F 15.9 °F 1011.7 in Calm     86 % 0.0 in 141.0 W/m2 CLR
11:19 18.3 °F 15.8 °F 1011.7 in Calm     85 % 0.0 in 197.0 W/m2 CLR
11:24 18.5 °F 16.1 °F 1011.7 in Calm     86 % 0.0 in 589.0 W/m2 CLR
11:29 18.6 °F 16.2 °F 1012.1 in Calm     86 % 0.0 in 287.0 W/m2 CLR
11:30 18.6 °F 16.2 °F 1012.1 in Calm     86 % 0.0 in 376.0 W/m2 CLR
11:35 18.6 °F 16.1 °F 1011.7 in Calm     85 % 0.0 in 295.0 W/m2 CLR
11:40 18.7 °F 16.3 °F 1012.1 in Calm     86 % 0.0 in 199.0 W/m2 CLR
11:45 18.8 °F 16.4 °F 1011.7 in Calm     86 % 0.0 in 422.0 W/m2 CLR
11:50 19.1 °F 16.9 °F 1011.7 in Calm     87 % 0.0 in 807.0 W/m2 CLR
11:55 19.4 °F 16.8 °F 1011.7 in Calm     85 % 0.0 in 884.0 W/m2 CLR
12:00 19.9 °F 17.5 °F 1011.7 in Calm     86 % 0.0 in 807.0 W/m2 CLR
12:05 20.1 °F 17.5 °F 1011.7 in Calm     85 % 0.0 in 853.0 W/m2 CLR
12:11 20.3 °F 17.5 °F 1011.7 in Calm     84 % 0.0 in 455.0 W/m2 CLR
12:16 20.6 °F 17.8 °F 1011.7 in Calm     84 % 0.0 in 455.0 W/m2 CLR
12:21 20.8 °F 17.8 °F 1011.7 in ENE 5.6 mph 5.6 mph 83 % 0.0 in 513.0 W/m2 CLR
12:26 20.9 °F 17.6 °F 1011.4 in Calm     81 % 0.0 in 635.0 W/m2 CLR
12:31 21.2 °F 17.9 °F 1011.4 in Calm     82 % 0.0 in 568.0 W/m2 CLR
12:36 21.4 °F 18.2 °F 1011.4 in Calm     82 % 0.0 in 1021.0 W/m2 CLR
12:41 21.6 °F 18.2 °F 1011.4 in NE 7.4 mph 7.4 mph 81 % 0.0 in 673.0 W/m2 CLR
12:46 21.8 °F 18.6 °F 1011.4 in NE 9.7 mph 9.7 mph 82 % 0.0 in 485.0 W/m2 CLR
12:51 21.9 °F 18.3 °F 1011.4 in ENE 7.4 mph 7.4 mph 80 % 0.0 in 577.0 W/m2 CLR
12:56 21.9 °F 18.5 °F 1011.1 in NNE 7.4 mph 7.4 mph 81 % 0.0 in 543.0 W/m2 CLR
13:01 22.1 °F 18.7 °F 1011.1 in ENE 3.7 mph 3.7 mph 81 % 0.0 in 552.0 W/m2 CLR
13:06 22.3 °F 18.7 °F 1011.1 in NNE 7.4 mph 7.4 mph 80 % 0.0 in 388.0 W/m2 CLR
13:11 22.5 °F 18.9 °F 1011.1 in NE 11.1 mph 11.1 mph 80 % 0.0 in 469.0 W/m2 CLR
13:16 22.8 °F 19.3 °F 1011.1 in NE 1.9 mph   81 % 0.0 in 689.0 W/m2 CLR
13:21 23.2 °F 19.3 °F 1011.1 in ENE 7.4 mph 7.4 mph 79 % 0.0 in 1023.0 W/m2 CLR
13:26 23.6 °F 19.8 °F 1010.7 in ENE 14.8 mph 14.8 mph 79 % 0.0 in 1099.0 W/m2 CLR
13:31 23.9 °F 19.9 °F 1010.7 in NNE 13.0 mph 13.0 mph 78 % 0.0 in 1009.0 W/m2 CLR
13:36 24.0 °F 19.9 °F 1010.7 in NE 16.7 mph 16.7 mph 78 % 0.0 in 962.0 W/m2 CLR
13:41 24.1 °F 19.8 °F 1010.7 in NE 16.1 mph 16.1 mph 77 % 0.0 in 912.0 W/m2 CLR
13:46 24.3 °F 19.8 °F 1010.7 in ENE 16.7 mph 16.7 mph 76 % 0.0 in 895.0 W/m2 CLR
13:51 24.6 °F 19.8 °F 1010.4 in ENE 16.7 mph 16.7 mph 75 % 0.0 in 909.0 W/m2 CLR
13:56 24.8 °F 19.7 °F 1010.4 in ENE 16.7 mph 16.7 mph 73 % 0.0 in 904.0 W/m2 CLR
14:01 25.1 °F 19.7 °F 1010.4 in East 11.1 mph 11.1 mph 72 % 0.0 in 911.0 W/m2 CLR
14:06 25.3 °F 19.9 °F 1010.0 in East 13.0 mph 13.0 mph 72 % 0.0 in 930.0 W/m2 CLR
14:11 25.7 °F 20.2 °F 1010.0 in East 20.4 mph 20.4 mph 72 % 0.0 in 969.0 W/m2 CLR
14:16 25.8 °F 20.1 °F 1009.7 in ESE 18.5 mph 18.5 mph 71 % 0.0 in 997.0 W/m2 CLR
14:21 26.2 °F 20.5 °F 1010.0 in ESE 7.4 mph 7.4 mph 71 % 0.0 in 868.0 W/m2 CLR
14:26 26.4 °F 20.2 °F 1010.0 in ENE 16.7 mph 16.7 mph 69 % 0.0 in 705.0 W/m2 CLR
14:31 26.3 °F 20.7 °F 1009.7 in ENE 17.7 mph 17.7 mph 71 % 0.0 in 497.0 W/m2 CLR
14:36 26.3 °F 20.2 °F 1009.7 in East 14.8 mph 14.8 mph 69 % 0.0 in 318.0 W/m2 CLR
14:41 26.3 °F 20.2 °F 1010.0 in ENE 18.5 mph 18.5 mph 69 % 0.0 in 237.0 W/m2 CLR
14:46 26.3 °F 19.9 °F 1009.7 in East 16.7 mph 16.7 mph 68 % 0.0 in 183.0 W/m2 CLR
14:51 26.3 °F 19.9 °F 1009.4 in East 17.7 mph 17.7 mph 68 % 0.0 in 148.0 W/m2 CLR
14:56 26.2 °F 19.6 °F 1009.7 in East 14.8 mph 14.8 mph 67 % 0.0 in 114.0 W/m2 CLR
15:01 26.2 °F 19.8 °F 1010.0 in ESE 11.1 mph 11.1 mph 68 % 0.0 in 93.0 W/m2 CLR
15:06 26.2 °F 19.3 °F 1010.0 in ESE 14.8 mph 14.8 mph 66 % 0.0 in 74.0 W/m2 CLR
15:12 26.1 °F 19.5 °F 1009.4 in East 6.4 mph 6.4 mph 67 % 0.0 in 63.0 W/m2 FEW
15:17 26.1 °F 19.4 °F 1009.4 in ESE 13.0 mph 13.0 mph 67 % 0.0 in 58.0 W/m2 FEW
15:22 25.9 °F 19.1 °F 1010.0 in East 16.7 mph 16.7 mph 66 % 0.0 in 54.0 W/m2 SCT
15:27 25.9 °F 19.1 °F 1010.0 in ESE 18.5 mph 18.5 mph 66 % 0.0 in 46.0 W/m2 SCT
15:32 25.9 °F 19.1 °F 1009.7 in ESE 19.3 mph 19.3 mph 66 % 0.0 in 35.0 W/m2 SCT
15:42 25.7 °F 19.1 °F 1009.7 in ESE 13.0 mph 13.0 mph 67 % 0.0 in 30.0 W/m2 BKN
15:47 25.6 °F 19.2 °F 1009.7 in SE 12.9 mph 12.9 mph 68 % 0.0 in 33.0 W/m2 BKN
15:52 25.5 °F 19.2 °F 1009.7 in ESE 9.3 mph 9.3 mph 68 % 0.0 in 42.0 W/m2 BKN
15:57 25.4 °F 19.1 °F 1009.7 in ESE 16.1 mph 16.1 mph 68 % 0.0 in 56.0 W/m2 BKN
16:02 25.3 °F 19.0 °F 1009.7 in ESE 18.5 mph 18.5 mph 68 % 0.0 in 72.0 W/m2 SCT
16:07 25.2 °F 18.8 °F 1009.7 in ESE 22.2 mph 22.2 mph 68 % 0.0 in 105.0 W/m2 FEW
16:12 25.1 °F 19.0 °F 1009.7 in ESE 18.5 mph 18.5 mph 69 % 0.0 in 163.0 W/m2 CLR
16:17 25.1 °F 18.9 °F 1009.7 in ESE 18.5 mph 18.5 mph 69 % 0.0 in 276.0 W/m2 CLR
16:22 25.4 °F 19.3 °F 1009.7 in ESE 18.5 mph 18.5 mph 69 % 0.0 in 874.0 W/m2 CLR
16:27 25.8 °F 19.7 °F 1009.7 in ESE 14.8 mph 14.8 mph 69 % 0.0 in 733.0 W/m2 CLR
16:32 26.0 °F 19.4 °F 1009.7 in SE 18.5 mph 18.5 mph 67 % 0.0 in 582.0 W/m2 CLR
16:37 26.1 °F 19.2 °F 1009.4 in SSE 24.1 mph 24.1 mph 66 % 0.0 in 673.0 W/m2 CLR
16:42 26.1 °F 19.2 °F 1009.7 in SSE 22.2 mph 22.2 mph 66 % 0.0 in 842.0 W/m2 CLR
16:47 26.3 °F 19.7 °F 1009.7 in SSE 25.9 mph 25.9 mph 67 % 0.0 in 782.0 W/m2 CLR
16:52 26.1 °F 19.5 °F 1009.4 in SE 18.5 mph 18.5 mph 67 % 0.0 in 731.0 W/m2 CLR
16:57 26.1 °F 19.0 °F 1009.4 in SE 14.8 mph 14.8 mph 65 % 0.0 in 705.0 W/m2 CLR
17:02 26.3 °F 19.2 °F 1009.4 in SE 27.8 mph 27.8 mph 65 % 0.0 in 691.0 W/m2 CLR
17:07 26.4 °F 19.5 °F 1009.7 in SE 18.5 mph 18.5 mph 66 % 0.0 in 679.0 W/m2 CLR
17:12 26.7 °F 19.6 °F 1009.7 in SSE 22.2 mph 22.2 mph 65 % 0.0 in 664.0 W/m2 CLR
17:17 26.6 °F 19.2 °F 1009.4 in ESE 24.1 mph 24.1 mph 64 % 0.0 in 656.0 W/m2 CLR
17:22 26.5 °F 19.1 °F 1009.4 in SE 16.7 mph 16.7 mph 64 % 0.0 in 635.0 W/m2 CLR
17:27 26.6 °F 19.2 °F 1009.4 in South 13.0 mph 13.0 mph 64 % 0.0 in 622.0 W/m2 CLR
17:32 26.8 °F 19.2 °F 1009.4 in South 17.7 mph 17.7 mph 63 % 0.0 in 603.0 W/m2 CLR
17:37 26.9 °F 19.3 °F 1009.4 in ESE 25.9 mph 25.9 mph 63 % 0.0 in 585.0 W/m2 CLR
17:42 27.1 °F 19.2 °F 1009.4 in SE 33.8 mph 33.8 mph 62 % 0.0 in 568.0 W/m2 CLR
17:47 27.2 °F 19.3 °F 1009.4 in South 18.5 mph 18.5 mph 62 % 0.0 in 563.0 W/m2 CLR
17:52 27.1 °F 19.2 °F 1009.0 in SE 29.6 mph 29.6 mph 62 % 0.0 in 547.0 W/m2 CLR
17:57 27.0 °F 19.1 °F 1009.0 in ESE 18.5 mph 18.5 mph 62 % 0.0 in 534.0 W/m2 CLR
18:02 27.1 °F 19.2 °F 1009.0 in South 14.8 mph 14.8 mph 62 % 0.0 in 526.0 W/m2 CLR
18:07 27.0 °F 19.1 °F 1009.0 in SSE 16.1 mph 16.1 mph 62 % 0.0 in 513.0 W/m2 CLR
18:12 27.0 °F 19.1 °F 1009.0 in SE 9.3 mph 9.3 mph 62 % 0.0 in 499.0 W/m2 CLR
18:17 27.1 °F 19.2 °F 1009.0 in SE 13.0 mph 13.0 mph 62 % 0.0 in 482.0 W/m2 CLR
18:22 27.2 °F 19.1 °F 1008.7 in SE 13.0 mph 13.0 mph 61 % 0.0 in 462.0 W/m2 CLR
18:27 27.2 °F 19.1 °F 1008.7 in SE 16.7 mph 16.7 mph 61 % 0.0 in 452.0 W/m2 CLR
18:32 27.2 °F 19.1 °F 1008.7 in ESE 16.7 mph 16.7 mph 61 % 0.0 in 436.0 W/m2 CLR
18:37 27.3 °F 19.2 °F 1008.7 in SE 16.7 mph 16.7 mph 61 % 0.0 in 420.0 W/m2 CLR
18:42 27.5 °F 19.1 °F 1008.7 in SE 16.7 mph 16.7 mph 60 % 0.0 in 406.0 W/m2 CLR
18:43 27.5 °F 19.1 °F 1008.7 in SE 18.5 mph 18.5 mph 60 % 0.0 in 401.0 W/m2 CLR
18:48 27.4 °F 18.9 °F 1008.7 in SSE 18.5 mph 18.5 mph 60 % 0.0 in 388.0 W/m2 CLR
18:53 27.4 °F 18.9 °F 1009.0 in SE 13.0 mph 13.0 mph 60 % 0.0 in 373.0 W/m2 CLR
18:58 27.6 °F 18.8 °F 1009.0 in SE 14.8 mph 14.8 mph 59 % 0.0 in 360.0 W/m2 CLR
19:03 27.6 °F 18.9 °F 1008.7 in South 14.8 mph 14.8 mph 59 % 0.0 in 348.0 W/m2 CLR
19:08 27.6 °F 18.9 °F 1008.7 in ESE 14.8 mph 14.8 mph 59 % 0.0 in 320.0 W/m2 CLR
19:13 27.6 °F 18.9 °F 1008.7 in Calm     59 % 0.0 in 313.0 W/m2 CLR
19:18 27.8 °F 19.1 °F 1009.0 in SSE 9.3 mph 9.3 mph 59 % 0.0 in 301.0 W/m2 CLR
19:23 27.8 °F 19.1 °F 1009.0 in SE 9.3 mph 9.3 mph 59 % 0.0 in 288.0 W/m2 CLR
19:28 27.9 °F 18.9 °F 1009.0 in SE 16.7 mph 16.7 mph 58 % 0.0 in 267.0 W/m2 CLR
19:33 27.8 °F 18.8 °F 1009.0 in SW 14.8 mph 14.8 mph 58 % 0.0 in 260.0 W/m2 CLR
19:38 27.9 °F 18.6 °F 1009.0 in SSW 14.8 mph 14.8 mph 57 % 0.0 in 257.0 W/m2 CLR
19:43 28.0 °F 18.9 °F 1009.0 in South 9.7 mph 9.7 mph 58 % 0.0 in 246.0 W/m2 CLR
19:48 27.9 °F 18.9 °F 1009.0 in South 5.6 mph 5.6 mph 58 % 0.0 in 209.0 W/m2 CLR
19:53 27.8 °F 18.8 °F 1009.0 in SSE 16.7 mph 16.7 mph 58 % 0.0 in 186.0 W/m2 CLR
19:58 27.6 °F 18.9 °F 1009.0 in Calm     59 % 0.0 in 172.0 W/m2 CLR
20:03 27.6 °F 19.1 °F 1009.0 in Calm     60 % 0.0 in 155.0 W/m2 CLR
20:08 27.5 °F 19.3 °F 1009.0 in SE 13.0 mph 13.0 mph 61 % 0.0 in 141.0 W/m2 CLR
20:13 27.3 °F 19.1 °F 1009.0 in SE 18.5 mph 18.5 mph 61 % 0.0 in 123.0 W/m2 CLR
20:18 27.1 °F 19.2 °F 1009.0 in SE 14.8 mph 14.8 mph 62 % 0.0 in 107.0 W/m2 CLR
20:23 26.8 °F 19.2 °F 1009.0 in ESE 11.1 mph 11.1 mph 63 % 0.0 in 93.0 W/m2 CLR
20:28 26.6 °F 19.2 °F 1009.4 in SE 5.6 mph 5.6 mph 64 % 0.0 in 81.0 W/m2 FEW
20:33 26.5 °F 19.1 °F 1009.0 in SE 13.0 mph 13.0 mph 64 % 0.0 in 67.0 W/m2 FEW
20:38 26.3 °F 19.0 °F 1009.0 in SE 14.8 mph 14.8 mph 64 % 0.0 in 56.0 W/m2 SCT
20:43 26.2 °F 19.1 °F 1009.0 in SE 11.1 mph 11.1 mph 65 % 0.0 in 44.0 W/m2 BKN
20:52 25.9 °F 18.8 °F 1009.4 in ESE 16.7 mph 16.7 mph 65 % 0.0 in 32.0 W/m2 BKN
20:57 25.8 °F 19.0 °F 1009.4 in SE 13.0 mph 13.0 mph 66 % 0.0 in 25.0 W/m2 BKN
21:02 25.7 °F 19.1 °F 1009.4 in SE 13.0 mph 13.0 mph 67 % 0.0 in 19.0 W/m2 BKN
21:07 25.5 °F 18.9 °F 1009.4 in SSE 7.4 mph 7.4 mph 67 % 0.0 in 16.0 W/m2 BKN
21:12 25.4 °F 18.8 °F 1009.4 in SE 14.8 mph 14.8 mph 67 % 0.0 in 12.0 W/m2 BKN
21:17 25.3 °F 18.7 °F 1009.4 in SE 13.0 mph 13.0 mph 67 % 0.0 in 9.0 W/m2 BKN
21:22 25.2 °F 18.8 °F 1009.4 in SE 14.8 mph 14.8 mph 68 % 0.0 in 5.0 W/m2 OVC
21:27 25.1 °F 18.7 °F 1009.4 in SE 11.1 mph 11.1 mph 68 % 0.0 in 0.0 W/m2 OVC
21:32 24.9 °F 18.9 °F 1009.7 in SE 1.9 mph   69 % 0.0 in 0.0 W/m2 OVC
21:37 24.8 °F 18.8 °F 1009.7 in SSE 3.7 mph 3.7 mph 69 % 0.0 in 0.0 W/m2 CLR
21:42 24.7 °F 18.7 °F 1009.7 in Calm     69 % 0.0 in 0.0 W/m2 CLR
21:47 24.7 °F 18.8 °F 1010.0 in Calm     70 % 0.0 in 0.0 W/m2 CLR
21:48 24.7 °F 18.8 °F 1010.0 in Calm     70 % 0.0 in 0.0 W/m2 CLR
21:53 24.6 °F 18.7 °F 1010.0 in Calm     70 % 0.0 in 0.0 W/m2 CLR
21:58 24.4 °F 18.8 °F 1010.0 in Calm     71 % 0.0 in 0.0 W/m2 CLR
22:03 24.3 °F 18.9 °F 1010.0 in Calm     72 % 0.0 in 0.0 W/m2 CLR
22:08 24.2 °F 18.8 °F 1010.0 in Calm     72 % 0.0 in 0.0 W/m2 CLR
22:10 24.2 °F 18.8 °F 1010.4 in Calm     72 % 0.0 in 0.0 W/m2 CLR
22:15 24.1 °F 18.7 °F 1010.4 in Calm     72 % 0.0 in 0.0 W/m2 CLR
22:20 24.1 °F 18.7 °F 1010.4 in Calm     72 % 0.0 in 0.0 W/m2 CLR
22:25 24.0 °F 18.7 °F 1010.7 in Calm     72 % 0.0 in 0.0 W/m2 CLR
22:30 23.8 °F 18.5 °F 1010.4 in Calm     72 % 0.0 in 0.0 W/m2 CLR
22:35 23.7 °F 18.6 °F 1010.7 in Calm     73 % 0.0 in 0.0 W/m2 CLR
22:40 23.6 °F 18.7 °F 1010.7 in Calm     74 % 0.0 in 0.0 W/m2 CLR
22:45 23.5 °F 18.6 °F 1010.7 in Calm     74 % 0.0 in 0.0 W/m2 CLR
22:50 23.4 °F 18.5 °F 1010.4 in SSE 7.4 mph 7.4 mph 74 % 0.0 in 0.0 W/m2 CLR
22:55 23.4 °F 18.3 °F 1010.4 in SSE 9.3 mph 9.3 mph 73 % 0.0 in 0.0 W/m2 CLR
23:00 23.4 °F 18.3 °F 1010.4 in SSE 9.7 mph 9.7 mph 73 % 0.0 in 0.0 W/m2 CLR
23:05 23.3 °F 18.2 °F 1010.4 in Calm     73 % 0.0 in 0.0 W/m2 CLR
23:10 23.3 °F 18.4 °F 1010.4 in Calm     74 % 0.0 in 0.0 W/m2 CLR
23:15 23.2 °F 18.3 °F 1010.4 in Calm     74 % 0.0 in 0.0 W/m2 CLR
23:20 23.1 °F 18.4 °F 1010.4 in Calm     75 % 0.0 in 0.0 W/m2 CLR
23:25 23.0 °F 18.3 °F 1010.4 in Calm     75 % 0.0 in 0.0 W/m2 CLR
23:30 22.8 °F 18.4 °F 1010.4 in ESE 3.2 mph 3.2 mph 76 % 0.0 in 0.0 W/m2 CLR
23:35 22.7 °F 18.5 °F 1010.4 in SE 11.1 mph 11.1 mph 77 % 0.0 in 0.0 W/m2 CLR
23:40 22.7 °F 18.5 °F 1010.4 in SSE 7.4 mph 7.4 mph 77 % 0.0 in 0.0 W/m2 CLR
23:45 22.7 °F 18.4 °F 1010.4 in SSE 5.6 mph 5.6 mph 77 % 0.0 in 0.0 W/m2 CLR
23:50 22.6 °F 18.4 °F 1010.4 in SSE 6.4 mph 6.4 mph 77 % 0.0 in 0.0 W/m2 CLR
23:55 22.6 °F 18.5 °F 1010.7 in SE 13.0 mph 13.0 mph 78 % 0.0 in 0.0 W/m2 CLR
Lo Temps de Massalio
Compliments of Weather Underground - 1.25 mb